Regional Weather Roundup
Issued by NWS Pendleton, OR

Home | Current Version | Previous Version | Text Only | Print | Product List | Glossary On
Versions: 1 2 3 4 5 6 7 8 9 10 11 12 13 14 15 16 17 18 19 20 21 22 23 24 25 26 27 28 29 30 31 32 33 34 35 36 37 38 39 40 41 42 43 44 45 46 47 48 49 50
000
ASUS46 KPDT 201225
RWRPDT
PENDLETON REGIONAL WEATHER ROUNDUP
NATIONAL WEATHER SERVICE PENDLETON OREGON
500 AM PDT SAT SEP 20 2014

NOTE: FAIR INDICATES FEW OR NO CLOUDS BELOW 12,000 FEET WITH NO
SIGNIFICANT WEATHER AND/OR OBSTRUCTIONS TO VISIBILITY.

# INDICATES UNOFFICIAL STATION AND DATA

WAZ520-201310-
EAST SLOPES OF WASHINGTON CASCADES

CITY            SKY/WX      TMP DP  RH  WIND    PRES   REMARKS
#BUMPING DAM    N/A         45  N/A N/A N5      N/A
#CLE ELUM HS    N/A         47  44  89  CALM    30.08S
#CLE ELUM 2NW   N/A         45  45  100 W1      N/A
#CLE ELUM LAKE  N/A         53  48  83  CALM    30.03S
#CLIFFDEL 2NW   N/A         47  45  93  CALM    N/A
#GLENWOOD       N/A         43  42  96  CALM    30.06R
#MANASTASH CYN  N/A         50  41  71  CALM    30.11S
#NELSON 3SW     N/A         49  45  86  CALM    30.25R
#NILE           N/A         47  45  93  CALM    29.36S
#RONALD 2NW     N/A         51  46  83  CALM    30.02R
#SNOWDEN        N/A          0  -78  1  CALM    N/A
#TEANAWAY 4NE   N/A         46  46  100 CALM    N/A
#TROUT LAKE 1NE N/A         50  45  83  CALM    30.03S
$$

WAZ521-201310-
SIMCOE HIGHLANDS

CITY            SKY/WX      TMP DP  RH  WIND    PRES   REMARKS
#CENTERVILLE 4W N/A         56  49  77  CALM    29.84R
#CENTERVILLE 1SWN/A         45  40  82  CALM    30.01R
#GOLDENDALE     N/A         53  48  83  E2      N/A
#GOLDENDALE 1NE N/A         49  44  83  N2      N/A
#GOLDENDALE 1S  N/A         51  47  86  CALM    30.05R
#GOODNOE HILLS  N/A         63  51  65  NW1     30.01R
#LYLE 6NE       N/A         57  51  80  N3      29.98S
$$

WAZ026-201310-
KITTITAS VALLEY

CITY            SKY/WX      TMP DP  RH  WIND    PRES   REMARKS
ELLENSBURG AP   CLEAR       51  47  86  E5      30.12R
6HR MIN TEMP:   50; 6HR MAX TEMP:   65;

#ELLENSBURG CWU N/A         52  49  89  CALM    30.02S
#ELLENSBURG 3NE N/A         48  45  89  NE2     30.11S
#ELLENSBURG     N/A         53  52  96  CALM    N/A
#KITTITAS 3S    N/A         47  45  93  CALM    30.05R
#THORP 6N       N/A         51  47  86  N2      30.07S
$$

WAZ027-201310-
YAKIMA VALLEY

CITY            SKY/WX      TMP DP  RH  WIND    PRES   REMARKS
SUNNYSIDE AP    CLOUDY      50  48  93  CALM    30.07R
YAKIMA AIRPORT  CLEAR       55  49  80  W8      30.10R
6HR MIN TEMP:   53; 6HR MAX TEMP:   69;

YAKIMA-VAGABOND CLEAR       57  48  72  NE5     30.12R
#COWICHE 1N     N/A         58  49  72  N1      30.27R
#DONALD 2NE     N/A         62  49  62  CALM    30.41R
#GRANDVIEW      N/A         54  49  83  CALM    30.07R
#MABTON         N/A         55  50  83  CALM    30.06S
#MOXEE 2E       N/A         56  48  74  SE2     30.03R
#NACHES 2SW     N/A         58  50  75  W3      30.11S
#OUTLOOK DOT    N/A         N/A N/A N/A N5      N/A
#SELAH 8E       N/A         50  45  83  SE6     N/A
#TERRACE HTS    N/A         56  50  80  CALM    30.01R
#TOPPENISH      N/A         58  51  77  CALM    29.97R
#WAPATO 4NE     N/A         62  49  62  CALM    30.41R
#WEST VALLEY    N/A         54  48  80  CALM    30.04R
#W YAKIMA       N/A         59  51  75  NW2     30.05R
#WHITE SWAN 5E  N/A         52  48  86  CALM    30.06R
#WILEY CITY 3W  N/A         51  45  80  CALM    30.10R
$$

WAZ028-201310-
LOWER COLUMBIA BASIN...WASHINGTON

CITY            SKY/WX      TMP DP  RH  WIND    PRES   REMARKS
PASCO           CLEAR       52  50  93  NW7     30.07R
6HR MIN TEMP:   52; 6HR MAX TEMP:   66;

PROSSER AWOS    N/A         52  50  93  N1      30.11R
RICHLAND AWOS   CLEAR       55  52  90  CALM    30.07R
#BASIN CITY 5SW N/A         55  51  86  CALM    30.08R
#BENTON CITY    N/A         57  51  80  CALM    29.96R
#CONNELL 5N     N/A         54  47  77  CALM    30.05R
#CONNELL 5NW    N/A         53  47  80  CALM    30.02R
#ELTOPIA        N/A         55  50  83  CALM    30.01R
#ELTOPIA 6NW    N/A         56  51  83  N5      29.04R
#KENNEWICK 3S   N/A         56  52  86  CALM    30.04R
#PASCO-BROADMOORN/A         57  53  86  E1      29.96R
#PATERSON       N/A         61  51  70  CALM    30.02R
#PROSSER        N/A         62  49  62  W2      30.04R
#SAGEMOOR 2W    N/A         55  51  86  W1      29.90R
#TOUCHET 2S     N/A         44  42  93  CALM    30.03R
#WEST PASCO     N/A         57  49  75  CALM    30.07R
$$

WAZ029-201310-
FOOTHILLS OF THE BLUES...WASHINGTON

CITY            SKY/WX      TMP DP  RH  WIND    PRES   REMARKS
WALLA WALLA AP  CLEAR       61  46  58  SE6     30.08R
6HR MIN TEMP:   59; 6HR MAX TEMP:   70;

#DAYTON SCHOOL  N/A         56  41  57  CALM    30.08R
#LOWDEN 2SE     N/A         49  46  89  CALM    30.03R
#PLEASANT VIEW 1N/A         57  45  64  NW1     30.07R
#PRESCOTT       N/A         52  45  77  CALM    30.03R
#SUDBURY        N/A         48  N/A N/A CALM    N/A
#WHITMAN COLLEGEN/A         61  47  60  SE2     30.08R
#WAITSBURG 8N   N/A         52  33  48  CALM    30.03R
#WALLA WALLA 5E N/A         54  44  69  W7      N/A
#WALLA WALLA U  N/A         56  49  77  CALM    30.03R
#WHITMAN MISSIONN/A         50  47  89  CALM    30.06R
$$

WAZ030-201310-
BLUE MOUNTAINS...WASHINGTON

CITY            SKY/WX      TMP DP  RH  WIND    PRES   REMARKS
$$

ORZ009-041-WAZ024-201310-
COLUMBIA RIVER GORGE

CITY            SKY/WX      TMP DP  RH  WIND    PRES   REMARKS
HOOD RIVER AP   CLEAR       54  50  86  S3      30.07R
THE DALLES AP   CLEAR       58  53  83  S3      30.05R
6HR MIN TEMP:   58; 6HR MAX TEMP:   73;

#ARLINGTON AIRPON/A         62  50  65  CALM    29.95S
#ARLINGTON HS   N/A         57  49  75  CALM    29.95R
#MARYHILL 2W    N/A         63  56  78  CALM    N/A
#MOSIER 1S      N/A         57  47  69  CALM    30.06S
#MURDOCK        N/A         62  55  78  N5      30.06R
#RUFUS DOT      N/A         61  53  75  S3      N/A

$$

ORZ510-201310-
NORTH CENTRAL OREGON

CITY            SKY/WX      TMP DP  RH  WIND    PRES   REMARKS
#CHENOWITH 1W   N/A         59  52  78  NW3     N/A
#COW CYN RST AREN/A         60  48  64  N3      N/A
#DUFUR 9E       N/A         61  52  72  E3      30.06R
#GRASS VALLEY   N/A         47  45  93  S1      N/A
#GRASS VALLEY 1SN/A         56  50  80  CALM    30.03R
#KENT DOT       N/A         57  46  67  NE2     N/A
#MAUPIN SCHOOL  N/A         57  48  72  CALM    28.95R
#MORO SCHOOL    N/A         51  49  93  CALM    30.09S
#SHANIKO 5WSW   N/A         59  45  60  NE15    N/A
#SHANIKO 4NW    N/A         58  48  69  E9      30.13S
#TYGH VALLEY 2NEN/A         53  46  77  CALM    30.03S
#WAPANITIA AIRPON/A         53  48  83  CALM    30.03R
#WASCO DOT      N/A         51  48  89  E2      N/A
#WASCO 5NE      N/A         50  46  86  CALM    30.02R
$$

ORZ511-201310-
CENTRAL OREGON

CITY            SKY/WX      TMP DP  RH  WIND    PRES   REMARKS
BEND AIRPORT    CLEAR       50  43  77  S3      30.14S
MADRAS AIRPORT  CLEAR       52  45  77  SE5     30.12R
REDMOND AIRPORT CLEAR       45  38  76  CALM    30.11S
6HR MIN TEMP:   43; 6HR MAX TEMP:   56;

#BEND 6E        N/A         50  41  71  CALM    29.94R
#BEND 1SW       N/A         46  40  79  S1      N/A
#BEND-AWBREY    N/A         54  48  80  CALM    30.00S
#BEND-KIM LN    N/A         52  46  80  CALM    30.10S
#CROOKED RVR RANN/A         50  44  80  NE7     30.01R
#CULVER         N/A         51  45  80  CALM    30.07R
#LAKE BILLY CHINN/A         55  40  57  CALM    30.15S
#POWELL BUTTE 3EN/A         51  44  77  E3      N/A
#POWELL BUTTE   N/A         52  42  69  S1      29.75S
#PRINEVILLE 3N  N/A         47  42  83  CALM    29.98F
#WARM SPRINGS   N/A         52  45  77  CALM    30.06R


ORZ509-201310-
EAST SLOPES OF OREGON CASCADES

CITY            SKY/WX      TMP DP  RH  WIND    PRES   REMARKS
#BLUE BOX PASS  N/A         57   3  11  CALM    N/A
#CAMP SHERMAN   N/A         40  36  85  CALM    30.06R
#LA PINE DOT    N/A         38  30  73  E3      N/A
#LA PINE 4NW    N/A         38  33  82  CALM    30.07S
#LAVA BUTTE DOT N/A         44  40  86  CALM    N/A
#SISTERS AIRPOR N/A         42  40  93  CALM    29.91S
#SISTERS ODOT   N/A         43  N/A N/A CALM    N/A
#SISTERS 3N     N/A         41  32  70  CALM    N/A
#SUNRIVER       N/A         42  40  93  CALM    29.93R
#SUNRIVER AP    N/A         40  38  92  CALM    29.99S
#SUTTLE LK DOT  N/A         43  43  100 SE9     N/A
#TUMALO 3W      N/A         60  47  62  SW1     29.87F
#WANOGA BUTTE D N/A         55  41  59  NE1     N/A

$$

ORZ044-201310-
LOWER COLUMBIA BASIN...OREGON

CITY            SKY/WX      TMP DP  RH  WIND    PRES   REMARKS
HERMISTON       CLEAR       51  45  80  E3      30.06R
6HR MIN TEMP:   50; 6HR MAX TEMP:   67;

#BOARDMAN SCHOOLN/A         54  47  77  CALM    30.04R
#BOARDMAN 3W    N/A         52  49  89  CALM    29.76S
#BOARDMAN 8SW   N/A         56  49  77  SW3     30.04R
#ECHO 8SW       N/A         53  43  69  CALM    30.03R
#IONE SCHOOL    N/A         55  43  64  CALM    30.06R
#IRRIGON 4NW    N/A         54  50  86  S1      N/A
#UMATILLA SCHOOLN/A         53  52  96  S2      30.09S
#UMATILLA       N/A         58  46  64  CALM    30.03R
$$

ORZ507-201310-
NORTHERN FOOTHILLS OF THE BLUES

CITY            SKY/WX      TMP DP  RH  WIND    PRES   REMARKS
PENDLETON AIRPT CLEAR       58  44  60  E6      30.07S
6HR MIN TEMP:   53; 6HR MAX TEMP:   63;

#ADAMS 3WNW     N/A         49  41  74  CALM    30.04R
#ATHENA         N/A         48  42  80  CALM    30.06R
#HELIX SCHOOL   N/A         52  43  71  CALM    30.03S
#HELIX 3N       N/A         56  44  64  E2      30.06R
#HELIX 6SW      N/A         56  44  64  CALM    30.07R
#HOLDMAN 5SE    N/A         54  44  69  CALM    30.08R
#HOLDMAN 6E     N/A         56  44  64  CALM    29.85R
#M-F GROVE ELEM N/A         55  43  64  CALM    30.06R
#M-FREEWATER 5SEN/A         57  46  67  CALM    30.08R
#PENDLETON DNTN N/A         53  38  57  CALM    30.08S
#PDT AQUATIC CTRN/A         54  38  55  E3      30.06S
#PENDLETON 5NE  N/A         50  42  74  CALM    30.04R
#PDT SUNRIDGE   N/A         49  43  80  CALM    30.09R
#PENDLETON 7NW  N/A         55  44  66  CALM    26.79R
#PILOT ROCK     N/A         56  42  59  CALM    30.10S
#TUTUILLA       N/A         48  43  83  CALM    30.06R
#UMAPINE 2E     N/A         53  48  83  CALM    30.04R
#WESTON SCHOOL  N/A         59  42  53  CALM    30.05R

$$

ORZ508-201310-
SOUTHERN FOOTHILLS OF THE BLUES

CITY            SKY/WX      TMP DP  RH  WIND    PRES   REMARKS
LEXINGTON       CLEAR       57  46  67  E7      30.10R
#AJAX           N/A         62  47  58  CALM    30.03R
#CONDON SCHOOL  N/A         58  49  72  CALM    30.07R
#CONDON 5W      N/A         59  49  69  N2      30.10S
#FOSSIL SCHOOL  N/A         48  41  77  CALM    30.08S
#HEPPNER EOC    N/A         55  44  66  E2      29.98R
#HEPPNER 4NE    N/A         57  47  69  E3      30.02R
#LEXINGTON 2SE  N/A         58  46  64  SE5     30.04S
#MIKKALO        N/A         54  46  74  SE3     30.08S
#OLEX 4N        N/A         56  47  72  S3      30.05R
#RUGGS 5NE      N/A         58  44  60  E2      30.27S
#RUGGS 2SW      N/A         58  44  60  S7      30.03S

$$

ORZ502-503-201310-
BLUE MOUNTAINS

CITY            SKY/WX      TMP DP  RH  WIND    PRES   REMARKS
MEACHAM         CLEAR       37  35  92  CALM    30.17S
6HR MIN TEMP:   37; 6HR MAX TEMP:   47;

#BATTLE MTN DOT N/A         51  50  96  CALM    N/A
#HARDMAN 10S    N/A         54  43  66  CALM    30.20S
#HEPPNER 15SE   N/A         51  44  77  SE1     30.09S
#LADD CYN SMT   N/A         45  40  82  CALM    N/A
#LADD CREEK ODOTN/A         48  42  80  S5      N/A
#N POWDER DOT   N/A         42  42  100 W2      N/A
#PIKES PEAK     N/A         64  44  48  CALM    27.99S
#TOLLGATE       N/A         48  43  83  CALM    30.12S
#TOLLGATE 9W    N/A         56  45  66  SE3     N/A
#TROY SCHOOL    N/A         51  46  83  CALM    29.95R
#UKIAH          N/A         37  35  92  CALM    30.14R
#WESTON 4E      N/A         60  46  60  E5      29.97S
$$

ORZ505-201310-
JOHN DAY BASIN

CITY            SKY/WX      TMP DP  RH  WIND    PRES   REMARKS
JOHN DAY        CLEAR       55  42  61  E9      30.15S
#JOHN DAY KJDY  N/A         49  44  83  N1      30.26R
#MONUMENT HS    N/A         48  40  74  CALM    30.12R
#MT. VERNON 5SE N/A         54  42  64  CALM    30.11S
#WINLOCK        N/A         54  43  66  CALM    30.20R
$$

ORZ506-201310-
OCHOCO AND JOHN DAY HIGHLANDS

CITY            SKY/WX      TMP DP  RH  WIND    PRES   REMARKS
#BUCK CREEK DOT N/A         56  46  69  S2      N/A
#HORSE RIDGE DO N/A         34  25  69  S1      N/A
#KEYES SMT DOT  N/A         49  40  71  E3      N/A
#PAULINA SCHOOL N/A         40  34  79  CALM    30.12S
#PINE MTN OBS   N/A         56  41  57  E7      N/A
#PRAIRIE CITY   N/A         40  37  89  CALM    30.24F
#SENECA 9NW     N/A         36  33  89  CALM    30.04S
$$

ORZ049-201310-
GRANDE RONDE VALLEY

CITY            SKY/WX      TMP DP  RH  WIND    PRES   REMARKS
LA GRANDE       CLEAR       46  34  63  CALM    30.15R
#COVE           N/A         47  43  86  N1      30.06S
#COVE 6NW       N/A         41  36  82  CALM    30.11R
#ELGIN 3N       N/A         44  38  79  CALM    29.87S
#ELGIN 1E       N/A         46  39  76  CALM    N/A
#IMBLER SCHOOL  N/A         49  42  77  NE3     30.10R
#LADD CYN DOT   N/A         52  42  69  SE12    N/A
#LA GRANDE ELEM N/A         50  43  77  CALM    30.12S
#UNION 1S       N/A         45  41  86  CALM    29.98R
$$

ORZ050-201310-
WALLOWA COUNTY

CITY            SKY/WX      TMP DP  RH  WIND    PRES   REMARKS
JOSEPH AIRPORT  CLEAR       46  41  83  S5      30.20S
#ENTERPRISE AP  N/A         46  39  76  CALM    30.11R
#ENTERPRISE HS  N/A         41  38  89  CALM    30.18S
#IMNAHA SCHOOL  N/A         51  43  74  CALM    30.11S
#IMNAHA 10S     N/A         53  42  66  SW5     30.15S
#JOSEPH 3N      N/A         40  35  82  E1      30.19R
#JOSEPH 3W      N/A         51  40  66  SW1     30.03S
#LOSTINE        N/A         42  40  93  CALM    29.90R
#MT HOWARD 8000 N/A         49  34  56  CALM    30.37S
#PROMISE 1S     N/A         48  43  83  CALM    30.16S
#SHEEP RDG 7000 N/A         51  41  68  CALM    30.07F
#WALLOWA SCHOOL N/A         41  39  93  CALM    31.01R



$$



USA.gov is the U.S. government's official web portal to all federal, state and local government web resources and services.